User: anonymous   Login
Location: Caltech
(34.1382°N, 118.1253°W)
Time: 15:14:20
(UTC-07:00)
Language:

Cosmos 1833 Rocket - Orbit

View from above orbital plane
View from above orbital plane
View from above satellite
View from above satellite

Ground track
Ground track

The orbit data is extracted from the following two-line orbital elements,

1 17590U 87027B   17290.41972279  .00000016  00000-0  32076-4 0  9995
2 17590  71.0024 252.5806 0003098 136.7356 223.4011 14.16750075581437
Epoch (UTC): 17 October 2017 10:04:24
Eccentricity: 0.0003098
inclination: 71.0024°
perigee height: 834 km
apogee height: 838 km
right ascension of ascending node: 252.5806°
argument of perigee: 136.7356°
revolutions per day: 14.16750075
mean anomaly at epoch: 223.4011°
orbit number at epoch: 58143

The dashed part of the orbit path shows where the satellite is in the earth's shadow,  

DLR